Regional Weather Roundup
Issued by NWS Northern Indiana

Home | Current Version | Previous Version | Text Only | Print | Product List | Glossary On
Versions: 1 2 3 4 5 6 7 8 9 10 11 12 13 14 15 16 17 18 19 20 21 22 23 24 25 26 27 28 29 30 31 32 33 34 35 36 37 38 39 40 41 42 43 44 45 46 47 48 49 50
000
ASUS43 KIWX 180210
RWRIWX

KIWX WEATHER ROUNDUP
NATIONAL WEATHER SERVICE NORTHERN INDIANA
900 PM EST WED JAN 17 2018

NOTE: "FAIR" INDICATES FEW OR NO CLOUDS BELOW 12,000 FEET WITH NO
SIGNIFICANT WEATHER AND/OR OBSTRUCTIONS TO VISIBILITY.

* THESE STATIONS ARE NOT UNDER NWS QUALITY CONTROL. THEY ALSO MAY NOT
  REPORT WEATHER SUCH AS PRECIPITATION OR FOG.

INZ001>027-180300-
NORTHERN INDIANA

CITY           SKY/WX    TMP DP  RH WIND       PRES   REMARKS
GARY*          PTCLDY    18   9  68 SW17G30   30.34F WCI   2
VALPARAISO     FAIR      15   8  73 SW16      30.34F WCI  -1
MICHIGAN CITY* FAIR      18   9  68 SW14G21   30.33F WCI   4
LAPORTE*       FAIR      13   8  82 SW16      30.33F WCI  -3
KNOX*          FAIR      14  10  85 SW15      30.36F WCI  -1
SOUTH BEND     FAIR      13   8  81 SW15      30.32F WCI  -3
ELKHART*       FAIR      16   9  73 SW12G17   30.32F WCI   3
GOSHEN         FAIR      13   8  81 SW18G29   30.32F WCI  -4
MONTICELLO*    FAIR      13   8  79 SW14      30.40F WCI  -2
LOGANSPORT*    FAIR      10   7  85 SW14      30.41F WCI  -5
ROCHESTER*     FAIR      18  12  79 SW15G22   30.37F WCI   3
WARSAW*        FAIR      14   9  79 SW13      30.34F WCI   0
AUBURN*        FAIR      16   9  73 SW12G18   30.33F WCI   3
FORT WAYNE     FAIR      13   8  81 SW17      30.36F WCI  -4
HUNTINGTON*    FAIR      12   7  79 SW10      30.37F WCI  -1
PERU/GRISSOM   MOCLDY    11   8  88 SW15      30.38F WCI  -6
MARION*        FAIR      11   7  84 SW12      30.40F FOG     WCI  -3

$$
INZ028>050-180300-
CENTRAL INDIANA

CITY           SKY/WX    TMP DP  RH WIND       PRES   REMARKS
LAFAYETTE      FAIR      12   8  84 SW7       30.44F WCI   1
MUNCIE*        FAIR      15   7  70 SW8       30.40F WCI   4
INDIANAPOLIS   FAIR      11   5  77 SW10      30.47F WCI  -3

$$
MIZ043>046-050>051-056>058-064>065-071>073-077>080-180300-
SOUTHWEST LOWER MICHIGAN

CITY           SKY/WX    TMP DP  RH WIND       PRES   REMARKS
BATTLE CREEK   FAIR      18   9  68 SW22G29   30.23F WCI   1
BENTON HARBOR  FAIR      20  11  68 SW18G26   30.28F WCI   5
COLDWATER*     FAIR      15   9  76 SW15G21   30.27F WCI   0
HILLSDALE*     FAIR      18   7  62 SW13G18   30.22F WCI   4
HOLLAND        FAIR      25  16  68 SW24G35   30.21F WCI   9
GRAND RAPIDS   FAIR      23  15  71 SW24      30.17F WCI   7
KALAMAZOO      FAIR      18   7  62 SW15      30.26F WCI   4
STURGIS*       FAIR      15  10  80 SW14      30.28F WCI   0
THREE RIVERS*  FAIR      17   9  71 SW10      30.29F WCI   5

$$
OHZ001>008-015>018-024>025-180300-
NORTHWEST OHIO

CITY           SKY/WX    TMP DP  RH WIND       PRES   REMARKS
WAUSEON*       FAIR      16  10  79 SW17G23   30.29F WCI   0
DEFIANCE       FAIR      15   8  73 SW14G22   30.34F WCI   0
FINDLAY        FAIR      15   6  67 SW14      30.34F WCI   0
TOLEDO EXPRESS FAIR      16  10  77 SW14      30.30F WCI   2
TOLEDO METCALF FAIR      16   8  71 SW16      30.32F WCI   1
LIMA           FAIR      13   8  81 SW15      30.35F WCI  -3

$$
AND FOR LAKE MICHIGAN COASTAL AND OPEN LAKE BUOY OBSERVATIONS

STATION/POSITION TEMP    WIND        PRES    VSBY  WAVE
                 AIR SEA DIR/SP/G                  HT/PER
                 (F)     (DEG/KT/KT) (MB)    (MI)  (FT/S)
CALUMET HARBOR    17     210/ 12/ 21 1025.6F
MICHIGAN CITY     16     200/ 22/ 26   N/A
BURNS HARBOR      16     210/ 19/ 24 1027.4F
SAINT JOSEPH      21     220/ 25/ 30 1025.7

$$
&&




USA.gov is the U.S. government's official web portal to all federal, state and local government web resources and services.